Back to catalog

YAM-12

AliveScienceSSO
NORAD 69003·PAYLOAD·🇺🇸 United States

Launched May 3, 2026 from Vandenberg Space Force Base

Loading…

Next Passes (next 24 hours)

TLE

FreshSource: Space-Track

Epoch: Sep 14, 2026, 11:00 UTC

1 69003U 26100Z   26257.45858426  .00001215  00000-0  13003-3 0  9990
2 69003  97.7761 153.3169 0001609  74.5798 285.5598 14.90531011 19985

Track YAM-12 in real time with AllMySat

Download on the App Store